Wind_Speed
61 60 57 57 63 71 75 72 71 72 71 69 67 61 58 57 56 55 52 50 51 54 58 60 62 61 63 65 66 63 57 56 55 54 52 51 53 56 59 61 62 63 65
62 62 60 55 62 69 74 72 71 70 69 69 67 62 56 56 57 54 49 48 50 53 56 58 60 61 62 62 58 55 55 54 53 53 54 55 57 61 64 66 67 69 72
63 66 63 57 58 67 72 73 70 69 67 66 65 63 57 54 53 50 50 50 52 54 55 57 58 57 55 53 53 54 53 50 52 55 57 60 62 65 71 73 75 76 79
63 64 64 59 56 62 70 73 70 66 65 65 64 61 58 52 51 49 49 48 50 52 52 53 51 50 51 51 52 51 50 52 55 58 61 64 67 69 72 81 85 84 88
63 64 66 59 57 59 65 71 70 64 63 64 62 60 56 51 50 48 49 48 48 48 46 47 49 49 49 50 51 51 53 56 60 63 66 70 72 74 75 77 86 92 95
65 63 63 56 55 56 60 67 69 65 62 62 62 58 53 49 50 50 51 51 50 48 46 44 45 47 49 50 53 56 59 62 66 69 73 76 79 82 82 82 85 88 96
67 64 57 56 56 56 57 60 67 64 61 61 61 58 53 50 50 50 48 50 48 46 43 45 47 49 52 54 58 61 64 68 71 75 78 82 84 86 88 88 88 88 93
68 61 56 56 57 56 56 56 61 62 59 61 60 56 53 50 50 48 48 49 49 49 49 51 52 52 56 59 61 65 69 72 76 79 82 85 87 90 92 94 94 94 100
67 59 53 55 55 55 54 55 58 60 59 59 59 57 52 51 50 49 49 51 51 52 52 53 54 57 59 62 65 68 72 76 80 83 87 90 92 95 97 99 102 103 103
61 53 49 51 53 56 53 53 56 59 58 59 59 57 53 51 51 51 52 52 53 53 55 57 59 60 63 66 69 73 77 82 85 88 92 95 96 100 103 106 111 116 118
63 56 48 51 54 57 54 50 54 58 58 59 58 56 53 51 52 52 53 54 55 56 57 60 62 64 67 70 73 78 82 87 91 94 96 99 101 105 109 114 119 123 120
62 56 51 52 54 55 53 50 53 58 59 59 58 55 53 52 53 54 55 55 57 58 60 63 66 68 71 74 79 83 87 92 95 97 99 102 106 111 116 120 122 115 114
61 56 51 51 53 54 51 50 54 57 58 59 57 54 53 53 54 55 55 56 57 60 63 66 69 72 76 79 83 88 92 96 98 100 103 107 112 117 121 117 112 106 110
61 54 51 51 53 53 51 53 54 56 58 58 56 53 53 53 55 56 55 57 59 63 66 69 73 77 81 85 89 92 97 99 101 105 109 114 119 118 111 105 105 112 118
56 51 51 49 50 51 51 51 55 57 57 57 55 54 54 55 56 56 56 58 61 66 70 73 77 82 86 89 93 96 98 102 107 111 116 118 112 106 102 107 113 120 126
52 50 50 49 49 50 50 49 54 54 55 54 53 54 54 55 55 56 57 60 64 69 72 77 81 85 88 91 93 97 102 107 111 116 113 107 99 104 109 116 123 129 131
47 50 50 50 52 47 43 45 52 52 54 54 54 53 52 54 55 57 58 62 66 70 74 79 83 85 89 93 97 102 106 112 113 108 102 100 105 111 117 123 130 134 133
44 48 49 49 45 41 40 46 50 52 52 52 50 50 51 54 55 57 60 65 69 74 77 80 84 88 92 98 102 107 112 110 105 97 101 106 112 120 124 127 131 127 116
37 36 36 34 33 37 41 46 48 50 48 48 48 49 51 53 55 59 64 69 73 76 80 83 87 93 98 102 108 109 104 96 95 102 108 116 122 127 128 128 117 110 104
22 25 25 27 32 37 40 43 45 44 44 45 47 49 52 55 58 63 67 71 75 79 83 87 93 97 103 107 104 98 88 95 100 109 118 124 128 129 127 112 104 101 98
17 20 24 28 32 36 39 41 41 41 43 45 47 50 53 57 61 66 71 74 78 83 88 93 97 102 101 98 89 89 95 100 108 116 124 127 129 122 108 102 99 95 91
16 21 24 29 33 36 38 38 39 40 42 45 48 51 55 60 66 70 74 78 83 87 91 97 100 97 93 85 89 95 103 110 117 123 128 129 117 105 102 98 94 88 81
15 21 27 32 34 35 37 38 39 41 44 46 50 55 61 66 70 73 77 81 85 91 95 93 92 87 86 90 96 103 110 117 123 129 130 114 104 101 97 90 84 79 72
20 24 29 33 35 36 38 40 41 43 47 52 57 61 65 68 72 76 79 84 89 88 88 85 80 83 89 95 102 109 116 122 128 127 114 104 99 94 87 81 76 70 65
24 28 32 36 38 39 41 43 46 50 54 57 60 63 68 71 75 80 84 83 82 82 79 77 82 88 95 101 107 114 120 124 121 108 99 95 89 81 77 71 65 63 58
26 30 34 38 41 44 46 49 52 55 58 61 64 67 71 76 79 77 76 78 77 74 75 80 87 94 101 106 113 120 123 116 104 96 91 85 78 75 70 64 58 53 50
Wind_Direction
255 255 254 254 250 248 249 247 245 244 246 250 253 257 261 265 267 272 276 276 270 266 267 269 270 272 273 273 273 276 278 280 280 282 282 284 284 285 285 286 287 287 288
257 259 256 255 253 247 248 249 246 244 243 246 250 253 258 261 265 270 275 274 272 269 268 268 270 271 270 271 274 276 279 278 279 281 283 285 285 285 285 286 286 287 288
255 257 257 255 254 245 242 245 246 245 241 242 246 249 254 258 263 265 271 271 271 268 267 267 268 270 270 273 275 276 276 275 279 281 283 285 286 287 288 288 289 290 291
250 253 255 254 252 246 239 240 242 243 242 239 242 246 251 255 257 262 267 267 267 267 267 267 267 269 272 274 274 274 276 277 279 282 283 285 285 286 286 291 292 294 294
248 251 254 254 252 247 239 236 237 238 238 238 239 242 246 252 256 259 262 264 265 267 269 271 271 272 273 273 274 276 278 279 281 283 285 286 287 287 287 286 289 292 294
248 250 256 256 252 248 239 234 234 235 236 237 238 241 244 249 253 257 261 263 268 269 270 272 274 274 274 277 279 280 281 281 283 285 286 288 289 290 290 289 287 289 293
246 249 251 252 247 243 237 231 232 234 234 234 237 239 241 247 251 255 258 261 266 268 270 272 274 276 279 280 282 283 284 285 285 287 288 290 291 290 291 292 292 290 291
245 249 251 246 245 241 238 229 228 231 233 233 234 237 240 245 248 253 256 259 263 265 269 273 277 279 280 282 286 287 288 289 290 291 292 292 292 293 292 293 292 293 295
239 245 245 243 242 241 239 232 224 227 229 230 233 236 238 243 248 252 255 259 263 266 270 274 276 279 282 285 288 290 292 292 293 293 293 293 294 294 294 295 295 295 295
232 236 239 237 240 242 241 235 226 225 228 227 229 234 236 242 248 252 254 259 263 267 270 274 278 281 285 288 291 292 293 294 294 295 295 295 295 296 297 298 298 299 299
226 234 233 233 235 238 242 238 226 225 227 227 229 233 237 243 248 252 255 260 263 267 272 276 279 283 287 289 291 292 294 296 296 296 296 296 297 298 299 300 300 301 301
221 228 228 230 232 237 239 239 224 224 224 226 229 232 238 244 249 252 256 261 265 270 274 278 282 284 287 289 291 293 295 297 298 298 299 299 299 300 301 301 303 303 301
220 225 226 228 233 235 237 237 226 222 223 226 229 234 239 245 250 254 258 263 268 272 275 279 282 285 287 289 292 294 296 297 298 299 300 300 301 302 303 303 303 301 300
222 225 225 227 232 237 236 235 225 221 222 224 228 234 241 248 253 256 261 266 270 274 277 280 284 287 289 290 293 295 297 298 300 300 301 302 303 304 304 302 301 302 300
220 221 223 223 230 236 236 236 221 219 221 223 229 235 243 250 255 260 264 269 273 277 280 283 286 289 290 292 294 296 298 300 301 302 303 304 305 303 302 304 301 301 302
214 217 222 227 232 236 235 234 218 219 220 224 231 237 245 252 257 262 267 272 276 280 283 286 288 289 292 294 296 298 299 300 302 303 304 303 302 305 303 304 304 303 308
207 217 223 227 231 235 235 226 216 219 220 225 232 240 248 255 260 266 271 276 280 283 285 287 289 293 295 297 298 300 301 302 303 303 302 304 304 304 305 304 306 308 309
206 212 217 224 227 229 225 215 215 218 221 227 236 245 252 258 265 270 275 279 281 284 287 291 294 296 298 299 300 301 302 302 303 303 304 304 306 305 305 308 310 308 308
204 211 216 220 221 218 214 212 215 219 223 232 241 249 257 263 269 273 277 281 284 288 291 294 296 298 299 300 301 302 303 304 304 304 307 307 306 306 308 311 310 309 309
202 209 212 210 210 208 210 214 217 223 231 241 248 255 262 267 272 277 281 284 287 290 293 296 298 299 301 301 302 304 304 304 306 307 306 305 307 310 313 311 310 310 310
197 198 198 203 207 211 214 216 223 231 241 249 255 261 267 273 277 280 283 287 290 293 295 297 299 300 301 302 304 303 305 307 307 306 304 307 311 313 312 311 311 311 310
193 198 205 210 213 214 217 225 235 244 252 258 264 269 273 276 279 283 287 290 292 295 297 298 299 300 302 303 304 307 307 307 306 305 307 312 315 314 312 312 311 310 310
213 215 214 214 216 220 229 239 247 254 260 266 270 273 275 278 283 287 289 293 295 297 297 298 301 303 304 306 308 308 308 308 308 309 313 315 315 313 312 311 311 310 311
233 224 220 220 224 233 241 249 256 262 265 268 271 276 280 284 287 290 293 295 296 296 297 301 302 304 306 307 309 309 309 309 310 312 315 315 313 312 312 312 311 312 311
233 230 228 230 236 243 250 256 260 264 268 273 277 281 284 288 291 293 294 294 295 299 301 302 305 306 306 307 309 309 307 309 312 314 314 313 312 313 312 311 312 311 311
240 239 238 241 246 252 257 262 266 270 273 277 281 285 288 290 291 293 294 297 299 301 302 304 304 305 306 309 309 308 309 313 315 315 314 314 314 314 313 313 313 311 310
Height
10625 10630 10635 10641 10639 10637 10637 10647 10656 10664 10673 10679 10684 10690 10693 10696 10696 10698 10699 10698 10697 10697 10697 10697 10697 10697 10696 10694 10692 10690 10686 10682 10678 10677 10677 10672 10669 10664 10660 10656 10652 10648 10643
10613 10613 10618 10626 10624 10624 10625 10633 10641 10650 10658 10665 10672 10679 10684 10685 10685 10687 10688 10687 10686 10685 10684 10685 10685 10685 10683 10681 10679 10676 10674 10670 10667 10664 10660 10658 10657 10651 10645 10640 10637 10633 10627
10596 10596 10600 10607 10607 10608 10611 10618 10628 10636 10644 10652 10660 10667 10673 10674 10674 10676 10677 10676 10675 10674 10674 10674 10673 10672 10670 10667 10666 10664 10662 10659 10656 10652 10650 10646 10640 10637 10626 10621 10618 10613 10606
10578 10578 10581 10589 10589 10590 10599 10604 10613 10624 10631 10639 10647 10655 10662 10663 10663 10666 10667 10665 10665 10664 10664 10663 10661 10659 10657 10656 10654 10651 10649 10647 10645 10641 10636 10632 10629 10625 10620 10601 10591 10590 10581
10561 10563 10564 10572 10575 10578 10584 10592 10600 10610 10617 10626 10634 10642 10650 10652 10653 10656 10656 10655 10655 10654 10653 10651 10649 10648 10647 10644 10642 10639 10637 10634 10630 10626 10622 10617 10613 10610 10609 10605 10584 10571 10559
10544 10547 10550 10560 10563 10566 10572 10579 10587 10596 10605 10614 10623 10631 10639 10643 10644 10645 10645 10645 10644 10643 10641 10640 10639 10638 10636 10633 10631 10628 10624 10620 10616 10611 10606 10600 10595 10589 10587 10587 10579 10571 10549
10527 10532 10539 10545 10549 10552 10557 10566 10576 10585 10594 10602 10610 10620 10627 10631 10633 10634 10635 10634 10633 10632 10631 10630 10629 10627 10624 10621 10618 10614 10610 10606 10600 10595 10589 10583 10577 10568 10562 10558 10556 10553 10540
10515 10522 10528 10533 10538 10542 10546 10555 10565 10575 10583 10590 10599 10608 10615 10619 10622 10623 10623 10623 10622 10621 10620 10619 10617 10614 10611 10608 10605 10600 10595 10590 10583 10576 10569 10561 10555 10546 10538 10532 10526 10524 10512
10499 10508 10515 10522 10527 10531 10538 10545 10554 10563 10571 10581 10589 10596 10603 10608 10611 10612 10612 10611 10610 10610 10608 10607 10604 10601 10598 10594 10590 10585 10579 10572 10564 10557 10548 10539 10530 10520 10512 10503 10494 10488 10491
10485 10494 10503 10511 10518 10522 10528 10536 10546 10554 10563 10570 10578 10585 10592 10597 10600 10600 10600 10600 10599 10598 10596 10594 10591 10588 10584 10580 10574 10568 10560 10553 10545 10536 10525 10516 10506 10495 10485 10475 10462 10450 10440
10471 10481 10491 10500 10507 10512 10521 10528 10536 10545 10554 10561 10568 10575 10582 10586 10587 10588 10588 10588 10587 10585 10583 10581 10578 10574 10570 10564 10558 10550 10542 10533 10523 10514 10504 10493 10483 10470 10457 10445 10429 10415 10399
10461 10470 10481 10490 10497 10504 10512 10520 10528 10534 10543 10551 10559 10566 10571 10575 10576 10576 10577 10576 10574 10573 10571 10568 10564 10560 10555 10548 10540 10532 10523 10512 10502 10491 10480 10469 10456 10442 10428 10413 10397 10382 10363
10452 10461 10473 10483 10489 10496 10503 10511 10518 10525 10534 10543 10551 10557 10562 10563 10565 10565 10565 10564 10563 10561 10558 10555 10550 10545 10538 10531 10524 10514 10503 10492 10481 10469 10457 10443 10429 10414 10399 10382 10368 10350 10333
10442 10458 10468 10476 10482 10489 10495 10501 10508 10517 10525 10534 10542 10547 10551 10553 10553 10554 10554 10553 10551 10548 10545 10541 10535 10529 10521 10513 10505 10495 10483 10470 10457 10444 10431 10417 10402 10387 10370 10353 10338 10323 10304
10440 10452 10461 10468 10474 10480 10487 10494 10500 10508 10517 10526 10532 10537 10540 10541 10543 10544 10543 10541 10539 10535 10531 10526 10519 10512 10504 10495 10486 10475 10461 10447 10432 10417 10403 10388 10373 10357 10341 10327 10310 10290 10272
10436 10445 10453 10461 10466 10471 10479 10486 10495 10503 10511 10519 10524 10527 10530 10532 10533 10533 10531 10529 10526 10521 10517 10510 10503 10496 10486 10475 10464 10453 10438 10424 10410 10394 10377 10363 10347 10333 10314 10297 10277 10251 10237
10429 10437 10444 10452 10458 10466 10473 10481 10490 10498 10505 10511 10514 10518 10521 10522 10522 10521 10519 10516 10512 10508 10502 10494 10486 10477 10466 10455 10442 10429 10415 10400 10383 10367 10352 10340 10323 10307 10292 10270 10246 10221 10198
10422 10429 10437 10445 10452 10460 10467 10475 10483 10491 10497 10503 10508 10511 10512 10512 10511 10510 10507 10503 10499 10493 10486 10478 10468 10456 10445 10432 10420 10406 10390 10374 10359 10342 10327 10313 10298 10275 10259 10244 10221 10192 10172
10421 10428 10435 10442 10449 10456 10462 10470 10479 10486 10492 10498 10501 10503 10503 10502 10500 10498 10495 10490 10484 10477 10468 10459 10449 10436 10424 10410 10396 10382 10367 10352 10335 10316 10300 10284 10267 10246 10232 10215 10189 10165 10148
10423 10428 10434 10440 10447 10454 10461 10469 10477 10483 10488 10492 10493 10494 10493 10492 10489 10486 10481 10475 10468 10460 10450 10440 10429 10417 10401 10387 10373 10360 10343 10330 10316 10297 10274 10253 10236 10219 10201 10179 10159 10141 10124
10425 10430 10435 10440 10447 10455 10462 10469 10475 10479 10482 10485 10485 10485 10483 10480 10477 10472 10466 10459 10451 10442 10432 10420 10408 10395 10382 10367 10353 10337 10322 10309 10293 10271 10247 10229 10211 10189 10168 10148 10132 10117 10101
10429 10434 10439 10444 10449 10455 10461 10467 10471 10474 10476 10476 10475 10474 10471 10467 10462 10457 10450 10442 10433 10424 10412 10398 10383 10371 10359 10346 10333 10317 10300 10282 10263 10239 10217 10202 10180 10160 10140 10124 10107 10093 10081
10432 10436 10440 10445 10450 10455 10460 10463 10466 10466 10466 10465 10464 10462 10458 10453 10448 10441 10433 10425 10415 10404 10392 10378 10365 10350 10336 10324 10310 10293 10273 10253 10229 10207 10188 10170 10152 10134 10118 10103 10086 10074 10062
10434 10437 10441 10445 10449 10453 10455 10456 10456 10456 10455 10454 10452 10448 10444 10438 10431 10424 10416 10406 10396 10384 10372 10360 10346 10334 10320 10306 10289 10270 10247 10225 10205 10185 10165 10147 10130 10114 10097 10082 10067 10054 10043
10432 10435 10439 10442 10444 10446 10446 10446 10446 10445 10443 10441 10438 10434 10428 10422 10415 10406 10397 10386 10375 10365 10353 10340 10329 10316 10301 10286 10269 10247 10223 10206 10186 10166 10146 10129 10111 10096 10081 10068 10053 10039 10029
10428 10432 10434 10436 10436 10436 10436 10436 10435 10433 10430 10427 10423 10418 10412 10405 10397 10387 10377 10367 10355 10345 10335 10324 10312 10297 10280 10265 10242 10217 10196 10180 10161 10142 10125 10108 10091 10076 10061 10050 10040 10029 10018